Location: Bettws Lleiki
(52.2000°N, 4.0333°W)
Time: 19:49:00
(UTC+00:00)

Daily predictions for brighter satellites

Satellite Brightness Start Highest point End
(mag) Time Altitude Azimuth Time Altitude Azimuth Time Altitude Azimuth
Cosmos 1842 Rocket 3.7 16:51:19 10° SSW 16:55:48 83° WNW 17:00:17 10° N
Meteor 1-27 4.3 16:53:30 10° S 16:59:10 72° E 17:04:58 10° NNE
H-2A R/B 4.2 16:56:41 10° N 16:59:58 22° WNW 17:03:11 10° WSW
Cosmos 724 4.3 16:55:33 10° NW 17:01:27 71° NE 17:07:13 10° SE
Meteor 2-3 Rocket 4.4 16:58:57 10° NNW 17:04:41 63° W 17:10:20 10° S
CZ-4 R/B 2.9 17:02:20 10° E 17:04:58 17° ENE 17:07:35 10° NNE
ATLAS 3B R/B 3.7 16:59:32 10° WNW 17:05:20 30° N 17:11:11 10° ENE
USA 238 DEB 4.4 17:00:26 10° NW 17:06:56 38° NNE 17:13:38 10° E
USA 238 4.4 17:00:32 10° NW 17:07:01 38° NNE 17:13:43 10° E
Cosmos 1371 Rocket 4.4 17:03:07 10° NNW 17:08:05 42° NE 17:12:59 10° SE
Cosmos 1805 Rocket 3.5 17:04:52 10° N 17:09:15 77° E 17:13:38 10° SSE
NOSS 3-2 (A) 4.5 17:03:56 10° NW 17:10:18 38° NNE 17:17:29 10° E
Cosmos 1455 4.2 17:07:44 10° SW 17:11:00 28° WNW 17:14:17 10° N
CORIOLIS 4.3 17:05:56 10° SE 17:11:12 55° ENE 17:16:32 10° N
Lacrosse 4 Rocket 2.0 17:07:35 10° S 17:11:21 37° ESE 17:15:07 10° NE
Meteor 1-28 Rocket 4.3 17:07:55 10° N 17:11:28 44° WNW 17:15:00 10° SW
Cosmos 2369 Rocket 4.1 17:08:10 10° WNW 17:12:10 20° NNW 17:16:12 10° NNE
Cosmos 1633 2.7 17:10:55 10° N 17:14:29 49° ENE 17:18:02 10° SSE
Cosmos 1862 3.6 17:11:04 10° N 17:14:53 42° ENE 17:18:42 10° SE
Cosmos 1238 Rocket 3.9 17:17:20 10° NNW 17:21:19 45° W 17:24:38 10° SSW
Cosmos 1943 Rocket 4.3 17:20:24 10° WNW 17:24:00 17° NNW 17:27:38 10° NNE
NOAA 12 4.2 17:19:34 10° SE 17:24:44 53° ENE 17:29:56 10° N
Cosmos 1980 Rocket 3.2 17:20:20 10° SSE 17:24:57 26° ESE 17:29:07 12° NE
Cosmos 2034 Rocket 4.2 17:19:21 10° N 17:25:33 50° ENE 17:31:44 10° SSE
Cosmos 2297 Rocket 3.6 17:22:37 10° NW 17:27:58 44° WSW 17:33:17 10° S
CZ-4B R/B 3.5 17:25:49 10° N 17:28:44 27° WNW 17:31:41 10° SW
Cosmos 2227 Rocket 3.4 17:23:24 10° NW 17:28:48 46° WSW 17:34:10 10° S
APEX 4.4 17:27:55 10° SSE 17:29:55 16° ESE 17:30:29 15° E
Cosmos 1680 Rocket 4.0 17:26:20 10° S 17:31:09 40° ESE 17:36:02 10° NE
Ariane Rocket 4.4 17:29:42 14° E 17:31:52 18° NE 17:35:08 10° NNE
Okean-O 2.7 17:28:22 10° SSE 17:32:43 57° ENE 17:37:05 10° N
Cosmos 773 Rocket 4.4 17:28:12 10° SW 17:33:21 65° WNW 17:38:35 10° NNE
Meteor 2-20 4.4 17:28:22 10° S 17:34:30 85° E 17:40:43 10° NNE
Cosmos 1633 Rocket 3.0 17:30:30 10° N 17:34:54 64° ENE 17:39:18 10° SSE
Genesis I 4.4 17:31:40 10° WSW 17:35:26 37° NW 17:38:56 11° NNE
Cosmos 44 4.3 17:32:57 10° NNW 17:36:32 23° NNE 17:38:32 17° ENE
Sich 1 3.2 17:34:40 10° NNW 17:39:02 76° W 17:43:25 10° S
Meteor 2-2 Rocket 4.4 17:33:24 10° SSW 17:39:13 79° WNW 17:44:57 10° N
Cosmos 1151 Rocket 3.7 17:35:37 10° SSE 17:39:32 33° E 17:43:27 10° NNE
Cosmos 2263 Rocket 2.5 17:37:41 10° NNW 17:43:01 43° NE 17:48:19 10° ESE
Feng Yun 1-1 Rocket 4.5 17:37:48 10° S 17:43:20 74° WSW 17:48:47 10° NNW
H-2A R/B 3.0 17:44:51 10° S 17:48:40 72° WSW 17:52:28 10° NNW
Cosmos 1666 Rocket 3.7 17:46:40 10° NNW 17:51:04 77° W 17:55:23 10° S
Okean O Rocket 4.2 17:48:16 10° SSW 17:51:50 24° W 17:55:24 10° NW
Cosmos 1933 Rocket 3.9 17:47:52 10° N 17:52:01 41° ENE 17:56:09 10° SE
Cosmos 1328 Rocket 3.8 17:48:07 10° SSE 17:52:19 46° E 17:56:32 10° NNE
Cosmos 2228 Rocket 4.2 17:49:07 10° SE 17:52:35 22° E 17:52:41 22° E
Cosmos 1869 3.9 17:49:03 10° SSW 17:52:56 56° WNW 17:56:49 10° N
USA 215 3.4 17:48:57 18° E 17:53:53 60° N 18:00:18 10° WNW
BREEZE-M DEB (TANK) 2.7 17:50:31 10° W 17:54:02 49° S 17:55:05 26° SE
COSMO-SKYMED 1 3.2 17:52:25 16° NE 17:55:16 33° E 17:59:12 10° SSE
Cosmos 2221 4.4 17:52:20 10° SW 17:56:13 31° WNW 18:00:08 10° N
ERBS 2.2 17:53:34 10° WSW 17:56:54 80° NNW 17:58:20 32° ENE
NOSS 3-2 (C) 4.4 17:50:27 10° NW 17:57:00 41° NNE 18:01:44 21° E
Cosmos 923 Rocket 3.9 17:52:38 10° SSW 17:57:51 79° ESE 18:02:58 11° NNE
Cosmos 1515 Rocket 4.1 17:54:03 10° SSE 17:58:00 34° E 18:00:30 19° NE
Cosmos 2369 3.7 17:52:33 10° SSW 17:58:13 77° ESE 18:03:23 13° NNE
Cosmos 1624 Rocket 4.0 17:52:58 10° NNW 17:58:22 82° ENE 18:03:42 10° SSE
Tsikada Rocket 4.3 17:52:30 10° SSE 17:58:31 45° E 18:04:35 10° NNE
YAOGAN 6 2.6 17:56:14 10° SSE 17:59:37 49° ENE 18:03:01 10° N
Cosmos 2056 Rocket 3.4 17:54:28 10° NNW 17:59:39 82° ENE 18:04:51 10° SSE
Cosmos 1697 Rocket 2.6 17:56:17 10° SSW 18:01:55 77° ESE 18:06:50 14° NNE
NOSS 2-3 (E) 3.8 18:00:45 10° SSW 18:05:10 65° SE 18:08:10 24° NE
SeaSat 1 2.4 18:00:53 10° SE 18:05:49 84° ENE 18:10:48 10° NNW
USA 229 DEB 3.9 18:02:04 10° WSW 18:08:43 69° NW 18:14:09 18° NE
USA 229 3.9 18:02:11 10° WSW 18:08:48 70° NW 18:14:15 18° NE
SMAP 4.3 18:04:31 10° S 18:08:59 45° W 18:13:29 10° NNW
Cosmos 1464 Rocket 4.4 18:04:43 10° NNW 18:10:49 66° W 18:16:51 10° S
Cosmos 1656 4.1 18:05:25 10° SW 18:10:53 62° NW 18:15:58 12° NNE
NOSS 3-1 (C) 3.7 18:05:35 10° WSW 18:11:19 69° NW 18:16:19 19° NE
H-2A R/B 3.8 18:14:20 15° NNE 18:14:20 15° NNE 18:16:06 10° NNE
NOSS 3-1 (A) 3.4 18:08:03 10° SW 18:13:47 87° NW 18:18:24 21° NE
FengYun 1-2 T 4.1 18:09:17 10° SSE 18:14:47 82° ENE 18:20:18 10° NNW
NOSS 2-3 (D) 3.8 18:10:27 10° SW 18:14:53 71° SE 18:17:31 29° NE
Cosmos 2278 3.6 18:10:09 10° SSW 18:15:49 78° ESE 18:20:09 18° NNE
Cosmos 2360 4.2 18:10:14 10° SSW 18:15:53 67° ESE 18:19:48 21° NE
YAOGAN 1 2.5 18:17:53 10° SSE 18:22:10 66° ENE 18:26:29 10° N
Cosmos 1470 Rocket 3.7 18:17:58 10° NNW 18:22:29 80° W 18:26:57 10° S
Cosmos 1844 Rocket 3.6 18:19:54 10° NNW 18:24:38 27° NE 18:24:56 27° NE
Envisat 3.4 18:22:13 10° S 18:27:15 64° WSW 18:32:20 10° NNW
Cosmos 2344 4.4 18:23:57 10° W 18:31:21 48° NNW 18:37:32 20° NE
Cosmos 2278 Rocket 4.0 18:28:21 10° NNW 18:31:40 15° NNE 18:31:51 15° NNE
Cosmos 2227 4.4 18:27:40 10° NNW 18:33:28 76° WSW 18:39:12 10° SSE
COBE Rocket 4.3 18:29:49 10° N 18:34:32 60° WNW 18:39:08 10° SSW
CENTAUR R/B 3.4 18:27:25 10° NW 18:34:37 47° NNE 18:37:54 33° ENE
Cosmos 2346 Rocket 4.4 18:30:30 10° S 18:36:43 89° ESE 18:42:55 10° N
CZ-4 R/B 1.7 18:35:29 10° S 18:39:34 69° WSW 18:43:36 10° NNW
Cosmos 1420 Rocket 3.8 18:34:35 10° NNW 18:39:49 85° ENE 18:43:51 17° SSE
CSL-04 Debris 4.2 18:34:44 10° SSE 18:40:14 87° WSW 18:45:46 10° NNW
NOAA 11 4.0 18:36:00 10° SSE 18:41:24 70° ENE 18:46:51 10° NNW
Cosmos 158 Rocket 3.8 18:36:53 10° SSW 18:42:09 82° ESE 18:44:29 34° NNE
Cosmos 1939 Rocket 3.3 18:43:52 49° NNE 18:43:52 49° NNE 18:47:05 10° N
SKYMED 2 3.5 18:41:06 25° NNE 18:43:36 89° WNW 18:47:57 10° SSW
Cosmos 1606 3.8 18:43:35 10° S 18:45:44 32° S 18:45:44 32° S
Cosmos 1452 Rocket 3.4 18:42:47 10° NNW 18:48:07 80° ENE 18:50:33 33° SSE
Meteor 1-26 Rocket 4.3 18:42:26 10° S 18:48:15 57° E 18:51:17 28° NNE
Geosat 3.9 18:47:22 41° NE 18:49:11 83° ESE 18:54:13 10° SSW
Lacrosse 4 Rocket 2.7 18:46:20 10° WSW 18:50:04 34° NW 18:51:27 27° N
CSL-04 Rocket 3.8 18:45:45 10° S 18:51:05 74° WSW 18:56:24 10° NNW
NOSS 2-3 (C) 4.1 18:48:11 10° WSW 18:52:44 69° NW 18:54:22 43° NNE
Cosmos 1933 3.3 18:50:31 10° SSW 18:54:35 80° W 18:54:53 73° NNW
ATLAS 3B R/B 3.0 18:51:17 10° NW 18:57:37 43° NNE 18:58:36 41° NE
Cosmos 2369 Rocket 4.5 18:57:03 10° NNW 18:58:37 11° N 19:00:12 10° NNE
USA 238 DEB 3.7 18:51:45 10° NW 18:58:53 77° NE 19:01:32 43° ESE
USA 238 3.7 18:51:51 10° NW 18:58:59 77° NE 19:01:36 44° ESE
Meteor 1-20 Rocket 4.4 18:55:17 10° NNW 19:01:09 76° W 19:06:55 10° S
NOSS 3-2 (A) 3.9 18:55:02 10° NW 19:02:17 75° NE 19:05:08 44° ESE
Meteor 1-25 Rocket 4.4 18:58:32 10° NNW 19:04:12 72° W 19:09:56 10° S
GEOS 3 Rocket 3.5 19:06:16 66° NE 19:07:04 89° SE 19:12:21 10° SW
Cosmos 1980 Rocket 2.5 19:02:51 10° SW 19:08:31 67° NW 19:10:55 35° NNE
SL-16 R/B 3.0 19:03:34 10° S 19:07:07 36° SSE 19:07:07 36° SSE
Ariane Rocket 2.8 19:09:55 81° ESE 19:10:07 84° ENE 19:15:15 10° NNW
Cosmos 1943 Rocket 4.5 19:08:36 10° NNW 19:10:21 11° N 19:11:15 11° N
Cosmos 2322 Rocket 3.5 19:10:06 10° S 19:12:37 26° S 19:12:37 26° S
Cosmos 44 3.9 19:13:58 10° NW 19:16:58 42° NW 19:16:58 42° NW
Cosmos 2263 Rocket 3.2 19:21:45 10° NW 19:26:59 43° WSW 19:31:01 16° S
Cosmos 2228 Rocket 3.9 19:26:07 10° SSW 19:30:14 49° W 19:30:14 49° W
COSMO-SKYMED 1 4.1 19:29:38 24° NNW 19:31:27 34° WNW 19:35:21 10° SW
USA 215 3.1 19:36:18 80° ESE 19:36:44 88° NNE 19:43:19 10° WNW
Cosmos 2279 Rocket 4.3 19:38:19 10° NNW 19:44:29 65° W 19:47:26 32° SSW
Cosmos 1697 Rocket 4.4 19:41:39 10° W 19:46:29 28° NW 19:48:34 23° N
NOSS 3-2 (C) 3.8 19:41:30 10° NW 19:48:50 87° NE 19:49:12 82° ESE
H-2A R/B 3.9 19:54:58 22° NNW 19:54:58 22° NNW 19:56:43 10° NNW
Cosmos 1844 Rocket 4.0 20:03:34 10° NNW 20:06:37 34° NW 20:06:37 34° NW
Cosmos 2278 Rocket 4.2 20:12:00 10° NNW 20:13:42 19° NNW 20:13:42 19° NNW
CENTAUR R/B 3.2 20:18:14 10° NW 20:25:06 71° WNW 20:25:06 71° WNW
ATLAS 3B R/B 3.9 20:42:07 10° NW 20:45:51 36° NW 20:45:51 36° NW
Cosmos 1980 Rocket 4.4 20:49:24 10° W 20:52:42 20° NW 20:52:42 20° NW
